Voltar ao catálogo

STARLINK-35850

AtivoComunicaçõesVLEO
NORAD 66352·PAYLOAD·🇺🇸 United States

Lançado Nov 6, 2025 de Vandenberg Space Force Base

Loading…

Próximas Passagens (próximas 24 horas)

TLE

AtualizadoSource: CelesTrak SupGP

Época: Sep 15, 2026, 03:47 UTC

1 66352C 25254E   26258.15812500 -.00026472  00000+0 -78220-3 0  2587
2 66352  53.1581  70.3359 0001112  85.4172 255.3723 15.34400373    14

Acompanhe STARLINK-35850 em tempo real com AllMySat

Download on the App Store